Terminal Aerodrome Forecast
Issued by NWS Memphis, TN

Home | Current Version | Previous Version | Text Only | Print | Product List | Glossary On
Versions: 1 2 3 4 5 6 7 8 9 10 11 12 13
000
FTUS44 KMEG 261136
TAFMKL
TAF
KMKL 261136Z 2612/2712 19008KT P6SM SCT020 BKN040
      TEMPO 2612/2614 BKN020
     FM261400 19008KT P6SM OVC020
     FM261700 19008KT P6SM SCT025 BKN040
     FM262200 19008KT P6SM VCTS SCT040CB BKN250
     FM270300 17005KT P6SM VCSH SCT040 BKN250=

USA.gov is the U.S. government's official web portal to all federal, state and local government web resources and services.